Location: Kimberly
(42.5380°N, 114.3640°W)
Time: 21:11:29
(UTC-06:00)

Envisat - Visible Passes

Search period start: 22 May 2017 00:00
Search period end: 01 June 2017 00:00
Orbit: 764 x 766 km, 98.2° (Epoch: 21 May)

Date Brightness Start Highest point End Pass type
(mag) Time Alt. Az. Time Alt. Az. Time Alt. Az.
22 May 5.3 22:50:04 10° SW 22:53:40 19° W 22:57:17 10° NW visible
23 May 4.1 22:11:55 10° S 22:16:42 42° W 22:21:31 10° NNW visible
24 May 3.0 21:34:51 10° SSE 21:39:55 88° ENE 21:45:02 10° NNW visible
24 May 5.8 23:18:34 10° W 23:19:37 11° W 23:20:40 10° WNW visible
25 May 5.0 22:38:24 10° SSW 22:42:29 24° W 22:46:36 10° NW visible
26 May 3.7 22:00:38 10° S 22:05:35 53° W 22:10:34 10° NNW visible
27 May 5.5 23:05:50 10° WSW 23:08:23 14° W 23:10:57 10° WNW visible
28 May 4.7 22:26:53 10° SSW 22:31:20 30° W 22:35:48 10° NW visible
29 May 3.4 21:49:26 10° S 21:54:29 67° WSW 21:59:33 10° NNW visible
30 May 5.4 22:53:50 10° SW 22:57:11 18° W 23:00:33 10° NW visible
31 May 4.3 22:15:30 10° SSW 22:20:11 38° W 22:24:55 10° NNW visible
